Boulder Muni, Boulder, CO, CO

6:42 PM MDT on October 22, 2019 (GMT -0600)
Boulder Muni, Boulder, CO

Weather History for KBDU - August, 2019

Change the Weather History Date:

Sunday, August 18, 2019

  Actual Average Record
Temperature  
Mean Temperature 74 °F -  
Max Temperature 88 °F - 91 °F (2013)
Min Temperature 59 °F - 51 °F (2015)
Degree Days  
Heating Degree Days 0    
Month to date heating degree days 0  
Cooling Degree Days 9    
Month to date cooling degree days 176  
Growing Degree Days 23 (Base 50)    
Moisture  
Dew Point 49 °F    
Average Humidity 56    
Maximum Humidity 87    
Minimum Humidity 25    
Precipitation  
Precipitation 0.00 in - 0.05 in (2015)
Snow  
Snow 0.00 in - - ()
Snow Depth 0.00 in    
Sea Level Pressure  
Sea Level Pressure 30.03 in    
Wind  
Wind Speed 3 mph (NNE)    
Max Wind Speed 8 mph    
Max Gust Speed -    
Visibility 10 miles    
Events      
T = Trace of Precipitation, MM = Missing Value Source: NWS Daily Summary

Daily Weather History Graph

Daily Weather History Graph

Search for Another Location

Airport or City:

Astronomy

Aug. 18, 2019 Rise Set
Actual Time 6:15 AM MDT 7:53 PM MDT
Civil Twilight 5:46 AM MDT 8:22 PM MDT
Nautical Twilight 5:11 AM MDT 8:57 PM MDT
Astronomical Twilight 4:34 AM MDT 9:33 PM MDT
Moon 9:49 PM MDT (8/18) 9:02 AM MDT (8/18)
Length of Visible Light 14h 36m
Length of Day
13h 38m
Waning Gibbous, 91% of the Moon is Illuminated
Aug 18
Waning Gibbous
Aug 23
Last Quarter
Aug 30
New
Sep 5
First Quarter
Sep 13
Full

Hourly Weather History & Observations

Time (MDT) Temp. Heat Index Dew Point Humidity Pressure Visibility Wind Dir Wind Speed Gust Speed Precip Events Conditions
12:12 AM 73.4 °F - 33.8 °F 23% 29.98 in 10.0 mi WSW 5.8 mph - N/A   Clear
12:30 AM 73.4 °F - 33.8 °F 23% 29.97 in 10.0 mi Calm Calm - N/A   Clear
12:54 AM 71.6 °F - 33.8 °F 25% 29.97 in 10.0 mi Calm Calm - N/A   Clear
1:12 AM 71.6 °F - 33.8 °F 25% 29.97 in 10.0 mi Calm Calm - N/A   Clear
1:30 AM 73.4 °F - 33.8 °F 23% 29.97 in 10.0 mi SW 3.5 mph - N/A   Clear
1:54 AM 69.8 °F - 33.8 °F 27% 29.97 in 10.0 mi Calm Calm - N/A   Clear
2:12 AM 73.4 °F - 32.0 °F 22% 29.96 in 10.0 mi SW 8.1 mph - N/A   Clear
2:30 AM 71.6 °F - 33.8 °F 25% 29.96 in 10.0 mi WSW 6.9 mph - N/A   Clear
2:48 AM 71.6 °F - 33.8 °F 25% 29.97 in 10.0 mi WSW 4.6 mph - N/A   Clear
3:12 AM 68.0 °F - 35.6 °F 30% 29.99 in 10.0 mi NNE 8.1 mph - N/A   Clear
3:30 AM 64.4 °F - 41.0 °F 42% 30.00 in 10.0 mi NNE 9.2 mph - N/A   Clear
3:48 AM 60.8 °F - 46.4 °F 59% 30.03 in 10.0 mi North 8.1 mph - N/A   Clear
4:12 AM 59.0 °F - 53.6 °F 82% 30.05 in 10.0 mi North 3.5 mph - N/A   Scattered Clouds
4:30 AM 59.0 °F - 55.4 °F 88% 30.06 in 10.0 mi ENE 3.5 mph - N/A   Mostly Cloudy
4:48 AM 59.0 °F - 55.4 °F 88% 30.06 in 10.0 mi NE 5.8 mph - N/A   Overcast
5:12 AM 59.0 °F - 55.4 °F 88% 30.07 in 10.0 mi NE 4.6 mph - N/A   Overcast
5:30 AM 59.0 °F - 55.4 °F 88% 30.06 in 10.0 mi NE 4.6 mph - N/A   Overcast
5:48 AM 59.0 °F - 55.4 °F 88% 30.06 in 10.0 mi Calm Calm - N/A   Overcast
6:13 AM 59.0 °F - 55.4 °F 88% 30.06 in 10.0 mi Calm Calm - N/A   Overcast
6:31 AM 59.0 °F - 55.4 °F 88% 30.06 in 10.0 mi Calm Calm - N/A   Overcast
6:49 AM 59.0 °F - 55.4 °F 88% 30.07 in 10.0 mi Calm Calm - N/A   Overcast
7:12 AM 59.0 °F - 55.4 °F 88% 30.07 in 10.0 mi Calm Calm - N/A   Overcast
7:30 AM 59.0 °F - 55.4 °F 88% 30.08 in 10.0 mi Calm Calm - N/A   Overcast
7:48 AM 59.0 °F - 55.4 °F 88% 30.08 in 10.0 mi Calm Calm - N/A   Overcast
8:12 AM 59.0 °F - 55.4 °F 88% 30.09 in 10.0 mi Calm Calm - N/A   Overcast
8:30 AM 60.8 °F - 55.4 °F 82% 30.10 in 10.0 mi Calm Calm - N/A   Overcast
8:48 AM 60.8 °F - 55.4 °F 82% 30.11 in 10.0 mi ENE 3.5 mph - N/A   Overcast
9:12 AM 60.8 °F - 55.4 °F 82% 30.10 in 10.0 mi ENE 3.5 mph - N/A   Overcast
9:30 AM 60.8 °F - 53.6 °F 77% 30.11 in 10.0 mi Calm Calm - N/A   Overcast
9:48 AM 60.8 °F - 53.6 °F 77% 30.11 in 10.0 mi Calm Calm - N/A   Overcast
10:12 AM 62.6 °F - 53.6 °F 72% 30.10 in 10.0 mi Calm Calm - N/A   Overcast
10:30 AM 64.4 °F - 53.6 °F 68% 30.09 in 10.0 mi West 3.5 mph - N/A   Overcast
10:48 AM 64.4 °F - 53.6 °F 68% 30.08 in 10.0 mi South 3.5 mph - N/A   Mostly Cloudy
11:12 AM 68.0 °F - 53.6 °F 60% 30.07 in 10.0 mi ESE 4.6 mph - N/A   Clear
11:30 AM 68.0 °F - 51.8 °F 56% 30.07 in 10.0 mi ENE 3.5 mph - N/A   Clear
11:48 AM 69.8 °F - 51.8 °F 53% 30.07 in 10.0 mi Calm Calm - N/A   Clear
12:12 PM 71.6 °F - 51.8 °F 50% 30.07 in 10.0 mi East 4.6 mph - N/A   Clear
12:30 PM 71.6 °F - 51.8 °F 50% 30.07 in 10.0 mi North 5.8 mph - N/A   Clear
12:48 PM 73.4 °F - 51.8 °F 47% 30.06 in 10.0 mi NNE 4.6 mph - N/A   Clear
1:12 PM 77.0 °F - 51.8 °F 41% 30.05 in 10.0 mi East 5.8 mph - N/A   Clear
1:30 PM 77.0 °F - 51.8 °F 41% 30.04 in 10.0 mi Calm Calm - N/A   Clear
1:48 PM 77.0 °F - 51.8 °F 41% 30.04 in 10.0 mi East 6.9 mph - N/A   Clear
2:12 PM 78.8 °F - 51.8 °F 39% 30.02 in 10.0 mi ENE 5.8 mph - N/A   Clear
2:30 PM 78.8 °F - 50.0 °F 36% 30.02 in 10.0 mi NE 5.8 mph - N/A   Clear
2:48 PM 82.4 °F - 51.8 °F 35% 30.01 in 7.0 mi ENE 3.5 mph - N/A   Clear
3:12 PM 84.2 °F - 50.0 °F 30% 30.00 in 10.0 mi East 5.8 mph - N/A   Clear
3:30 PM 86.0 °F - 50.0 °F 29% 30.00 in 10.0 mi East 3.5 mph - N/A   Clear
3:54 PM 87.8 °F - 48.2 °F 25% 29.99 in 10.0 mi NNE 4.6 mph - N/A   Clear
4:12 PM 86.0 °F - 48.2 °F 27% 29.99 in 10.0 mi NE 4.6 mph - N/A   Clear
4:30 PM 86.0 °F - 46.4 °F 25% 29.99 in 10.0 mi ENE 4.6 mph - N/A   Clear
4:54 PM 86.0 °F - 50.0 °F 29% 29.98 in 10.0 mi North 4.6 mph - N/A   Clear
5:12 PM 86.0 °F - 51.8 °F 31% 29.99 in 10.0 mi North 6.9 mph - N/A   Clear
5:30 PM 84.2 °F - 51.8 °F 33% 29.99 in 10.0 mi North 8.1 mph - N/A   Clear
5:54 PM 84.2 °F 82.8 °F 53.6 °F 35% 29.99 in 10.0 mi NNW 5.8 mph - N/A   Clear
6:08 PM 82.4 °F 81.4 °F 53.6 °F 37% 29.99 in 10.0 mi North 4.6 mph - N/A   Clear
6:32 PM 82.4 °F 81.4 °F 53.6 °F 37% 30.00 in 10.0 mi Calm Calm - N/A   Clear
6:50 PM 80.6 °F 80.3 °F 53.6 °F 39% 30.00 in 10.0 mi NNW 3.5 mph - N/A   Clear
7:12 PM 80.6 °F 80.3 °F 53.6 °F 39% 30.00 in 10.0 mi Calm Calm - N/A   Clear
7:30 PM 78.8 °F - 55.4 °F 44% 30.01 in 10.0 mi Calm Calm - N/A   Clear
7:48 PM 78.8 °F - 57.2 °F 47% 30.01 in 10.0 mi Calm Calm - N/A   Clear
8:12 PM 77.0 °F - 55.4 °F 47% 30.01 in 10.0 mi West 3.5 mph - N/A   Clear
8:30 PM 75.2 °F - 53.6 °F 47% 30.02 in 10.0 mi West 3.5 mph - N/A   Clear
8:49 PM 75.2 °F - 50.0 °F 41% 30.03 in 10.0 mi WSW 4.6 mph - N/A   Clear
9:12 PM 73.4 °F - 51.8 °F 47% 30.04 in 10.0 mi West 3.5 mph - N/A   Clear
9:30 PM 73.4 °F - 50.0 °F 44% 30.04 in 10.0 mi Calm Calm - N/A   Clear
9:48 PM 73.4 °F - 50.0 °F 44% 30.05 in 10.0 mi SW 4.6 mph - N/A   Clear
10:12 PM 75.2 °F - 44.6 °F 34% 30.05 in 10.0 mi SW 4.6 mph - N/A   Clear
10:30 PM 77.0 °F - 42.8 °F 29% 30.05 in 10.0 mi SW 3.5 mph - N/A   Clear
10:48 PM 73.4 °F - 42.8 °F 33% 30.05 in 10.0 mi SSW 3.5 mph - N/A   Clear
11:12 PM 73.4 °F - 41.0 °F 31% 30.05 in 10.0 mi SW 5.8 mph - N/A   Clear
11:30 PM 73.4 °F - 41.0 °F 31% 30.05 in 10.0 mi SW 3.5 mph - N/A   Clear
11:53 PM 71.6 °F - 42.8 °F 35% 30.05 in 10.0 mi WSW 3.5 mph - N/A   Clear